Location: Coed Ely
(51.5661°N, 3.4150°W)
Time: 20:15:10
(UTC+00:00)

Cosmos 2082 Rocket - Pass Details

Date: 28 January 2021
Orbit: 832 x 855 km, 71.0° (Epoch: 27 February)

Event Time Altitude Azimuth Distance (km) Brightness Sun altitude
Rises 19:18:49 0° 327° (NNW) 3,437 5.8 -22.0°
Reaches altitude 10° 19:21:18 10° 324° (NW) 2,496 5.1 -22.4°
Maximum altitude 19:26:56 60° 246° (WSW) 972 2.7 -23.3°
Drops below altitude 10° 19:32:30 10° 168° (SSE) 2,470 4.5 -24.2°
Enters shadow 19:33:28 - 167° (SSE) 2,830 4.8 -24.3°
